GFSFLT2_prec_cthk_219.txt.gz
RH
17 18 20 22 25 30 33 34 34 35 35 35 36 36 36 35 33 29 28 28 27 26 27 27 27 26 26 25 25 25 32 37
18 18 20 22 25 30 34 35 35 36 38 37 37 38 38 36 36 33 29 28 27 27 26 28 29 29 29 28 27 25 25 34
19 19 20 22 25 29 33 35 36 37 39 39 38 38 40 39 38 36 33 29 28 28 28 28 28 29 30 31 31 29 27 34
20 20 20 21 24 28 31 35 35 35 37 39 40 40 39 41 40 39 36 33 30 30 30 30 30 30 30 30 31 32 32 31
22 23 23 21 22 26 30 33 34 34 35 37 39 42 41 41 41 40 38 37 35 34 34 34 34 34 34 34 33 31 32 33
24 24 23 23 22 26 30 32 33 33 34 36 39 41 44 42 45 49 50 48 43 42 41 42 42 42 40 40 38 35 34 33
23 23 24 25 22 23 32 34 34 34 35 37 41 43 45 46 50 55 56 57 56 53 50 51 52 52 52 47 41 36 35 34
22 23 25 25 22 23 28 34 34 35 37 39 40 41 44 50 54 55 55 58 60 65 63 64 60 59 54 42 37 39 38 39
22 23 27 27 25 24 27 31 32 33 36 40 42 42 42 44 49 52 55 56 57 59 62 62 62 60 54 46 41 39 38 37
21 22 25 28 26 24 29 31 31 33 36 39 40 41 43 44 46 49 51 52 53 54 54 57 58 55 54 49 43 40 36 40
21 21 24 27 28 24 27 30 30 32 37 41 41 41 43 43 43 45 46 48 49 50 53 61 60 57 52 44 33 31 32 32
22 21 23 28 30 27 28 30 29 31 34 39 44 44 45 46 44 43 44 46 49 59 62 55 54 53 41 28 24 24 26 28
22 23 24 28 30 28 28 28 31 33 35 40 44 48 49 51 53 50 48 50 54 56 59 57 53 36 25 23 24 27 29 32
22 26 24 26 28 28 27 29 31 35 37 41 44 47 50 54 57 58 56 55 54 53 49 45 32 26 24 27 30 33 35 37
24 25 23 25 27 30 32 33 36 40 39 42 46 50 53 57 61 64 66 67 66 62 50 39 35 33 33 37 37 36 33 33
23 23 21 24 26 30 31 32 34 35 38 45 50 53 55 58 63 69 72 74 68 52 44 40 38 38 38 37 37 38 39 37
21 23 22 22 28 32 36 37 37 38 45 48 50 54 57 62 67 72 67 62 60 57 52 46 43 43 42 42 42 42 42 41
23 26 28 30 30 35 40 41 40 43 47 48 51 58 61 63 63 60 60 59 58 60 56 55 51 49 49 50 49 50 47 44
21 23 27 31 34 36 38 43 47 47 49 52 56 58 61 54 62 59 60 59 59 58 56 54 52 51 51 51 50 47 47 51
25 24 27 28 33 36 37 39 46 50 57 53 56 63 54 65 58 61 57 55 56 55 53 54 55 54 51 50 47 53 59 47

GFSFLT2_prec_cthk_222.txt.gz
RH
15 16 18 20 21 24 27 31 31 30 30 30 31 31 31 31 29 27 26 26 25 25 26 26 25 24 24 23 22 29 31 36
15 16 18 19 21 24 27 30 32 32 32 33 33 33 32 32 32 31 28 27 27 26 25 26 27 27 27 27 25 24 26 32
17 17 19 20 21 23 26 30 33 34 34 35 35 35 34 34 34 34 32 29 27 28 27 27 27 28 29 29 29 28 26 27
18 19 20 21 22 23 25 29 32 33 34 35 37 37 37 36 36 36 36 33 30 29 29 30 30 29 29 30 29 28 29 26
19 21 22 23 23 23 24 28 31 32 34 36 38 39 39 39 38 38 38 37 36 34 32 32 32 33 33 33 33 33 31 30
20 22 23 23 24 23 24 26 29 31 31 34 36 38 40 42 41 40 41 42 42 39 38 38 40 40 40 40 40 41 40 37
20 23 23 23 23 24 23 25 28 30 31 32 35 37 40 42 45 44 48 51 53 55 51 48 47 48 49 50 48 43 40 38
20 25 24 23 23 25 23 25 27 29 31 32 34 38 42 44 44 47 52 56 59 60 62 61 61 61 59 56 51 43 38 37
15 23 26 23 24 26 25 25 28 29 29 31 34 37 39 41 43 47 51 54 58 58 57 58 63 65 62 59 55 52 45 36
17 21 24 25 25 26 26 24 27 28 28 30 32 36 37 39 42 42 45 47 48 51 52 54 56 56 57 56 55 49 44 38
16 21 23 24 26 27 27 26 27 28 30 32 34 36 38 38 38 41 42 43 45 47 47 48 49 53 57 58 57 48 35 31
18 19 20 24 26 28 29 30 28 28 27 31 35 38 39 41 43 42 43 44 43 43 44 47 53 57 54 53 50 35 25 23
20 19 20 22 25 28 31 31 30 29 28 32 37 38 40 42 45 47 47 48 49 49 48 52 55 57 54 50 33 24 22 23
20 20 19 19 23 26 31 33 33 32 30 31 37 39 40 44 48 50 52 54 56 57 58 59 59 57 50 35 28 29 30 32
20 18 18 18 21 27 32 36 38 35 33 34 37 40 45 48 50 53 55 57 62 64 66 69 70 61 47 41 38 37 37 37
17 18 19 21 23 26 27 29 32 31 33 35 39 44 46 49 50 53 58 61 64 69 71 72 62 56 52 49 46 45 45 41
18 20 21 21 23 26 28 30 33 34 37 40 42 45 48 50 52 58 61 62 67 70 70 58 55 55 54 52 52 49 49 49
28 22 21 23 27 29 32 34 34 36 40 44 45 46 49 54 58 59 64 68 67 66 54 53 53 54 52 52 53 54 55 55
29 30 27 26 27 30 35 40 43 44 43 45 47 49 54 57 57 63 68 66 61 57 58 53 54 53 49 51 52 54 55 54
30 32 37 35 34 35 40 47 50 52 51 46 47 51 58 57 62 61 66 58 56 50 59 61 46 51 51 51 53 53 56 58

GFSFLT2_prec_cthk_225.txt.gz
RH
14 15 17 19 20 23 25 28 29 31 28 28 30 30 30 29 27 26 25 25 24 25 26 25 23 23 24 23 24 31 36 35
15 15 17 19 20 23 25 28 30 31 30 30 32 32 32 32 31 29 27 25 26 25 26 26 25 25 24 23 23 24 28 32
18 16 17 19 20 22 25 27 31 32 32 32 34 34 34 35 35 33 32 29 26 26 26 26 26 27 28 28 26 25 24 25
21 19 18 19 21 22 24 26 29 32 33 34 35 36 36 37 38 37 35 34 31 28 27 27 29 29 29 29 28 28 28 26
21 21 20 21 22 22 23 25 27 31 33 34 36 38 39 39 39 39 39 37 36 34 31 29 29 30 31 31 32 32 31 30
21 22 22 22 23 23 23 24 26 28 30 32 35 37 39 41 43 43 42 42 40 39 37 35 35 35 36 37 38 39 39 38
19 19 20 23 24 24 24 24 25 27 29 30 33 36 38 40 44 46 45 44 45 48 49 47 45 45 45 46 46 46 45 41
20 19 20 24 25 25 25 25 25 27 28 28 31 33 36 38 42 46 47 46 49 54 57 59 60 59 57 59 58 56 51 45
17 17 19 22 26 26 26 26 24 26 27 28 29 31 34 37 42 45 47 48 50 54 58 58 57 58 59 60 60 59 56 52
17 16 17 21 24 25 26 26 25 25 28 29 28 29 31 35 38 40 45 49 51 51 52 52 52 51 51 52 55 55 54 51
19 16 16 18 22 24 25 26 27 26 28 29 29 29 32 33 35 38 42 43 45 47 48 48 46 46 47 49 52 53 57 56
18 17 15 17 22 24 24 26 28 30 29 29 30 30 32 35 36 40 42 42 43 44 45 47 48 50 54 54 54 54 52 47
15 14 15 18 21 22 23 23 27 30 30 30 31 31 33 36 38 41 43 44 47 51 53 54 54 55 58 57 54 52 49 35
13 14 16 17 20 21 23 24 27 30 32 32 31 32 35 37 39 41 45 48 50 53 55 57 59 60 62 65 63 55 46 42
15 15 18 20 21 25 26 28 30 31 32 33 32 34 37 38 40 44 48 50 51 55 56 58 62 64 68 69 55 50 52 53
18 19 20 23 21 23 25 26 28 27 30 34 36 34 37 40 42 46 49 51 54 56 60 61 64 67 65 55 50 50 47 46
23 24 24 26 23 22 27 29 31 34 33 35 38 36 37 39 44 48 51 53 55 59 60 64 69 68 62 48 48 46 47 46
26 28 28 28 29 29 30 30 33 37 42 46 42 40 41 45 48 49 54 56 58 59 66 67 67 63 48 49 49 46 44 48
24 26 29 29 31 31 35 37 36 40 42 45 49 48 47 49 52 51 59 59 61 61 66 65 61 49 49 51 49 48 51 47
25 26 29 31 33 35 40 40 43 50 47 48 53 57 60 61 57 57 62 63 65 65 67 60 54 50 50 46 47 46 46 51

GFSFLT2_prec_cthk_228.txt.gz
RH
14 14 15 17 19 22 25 27 29 31 29 29 29 29 29 28 26 25 25 25 24 23 25 25 22 21 21 23 25 29 32 33
15 15 15 17 19 21 25 27 30 32 32 30 31 31 31 31 30 28 27 25 24 26 24 24 24 22 22 22 23 24 28 31
18 18 17 16 18 20 23 27 30 32 33 32 33 33 34 34 33 32 30 29 26 24 25 26 25 24 24 24 24 23 23 23
20 20 19 18 18 20 22 25 28 31 33 33 33 35 37 36 36 35 35 33 31 28 26 25 26 26 26 26 26 26 25 25
21 20 20 20 20 20 22 23 26 29 31 33 34 35 38 39 38 38 37 37 36 34 33 30 29 28 28 29 30 29 29 29
22 22 21 21 21 21 22 22 24 27 29 31 32 34 36 39 41 41 41 40 41 40 38 36 35 35 35 36 36 36 38 39
21 21 20 20 21 23 23 23 22 24 27 29 30 32 35 37 40 42 44 44 43 44 44 44 45 45 46 49 50 50 51 50
21 21 21 21 21 22 23 24 23 23 25 28 29 31 32 35 37 40 43 46 46 46 47 53 57 59 61 62 64 63 64 62
21 21 20 20 20 22 24 24 24 24 24 26 28 30 32 33 35 38 42 45 47 49 49 51 56 59 60 61 62 64 64 61
23 22 20 19 19 21 23 24 24 25 24 25 27 29 29 32 33 37 42 46 47 48 51 52 53 52 53 54 53 52 53 54
26 23 22 20 20 21 23 24 25 25 25 25 26 28 28 30 33 35 39 42 43 46 47 46 46 47 48 49 48 49 53 56
30 25 22 22 22 22 23 26 25 25 26 26 27 28 29 30 32 35 38 40 43 44 45 46 46 46 48 50 53 56 58 57
20 22 22 22 21 22 21 22 25 25 26 27 29 29 30 31 32 36 37 40 43 46 48 48 50 54 55 54 59 60 61 64
18 19 20 19 20 20 22 25 27 29 29 28 31 31 31 31 32 36 38 42 44 47 50 51 52 54 56 58 58 59 62 60
17 17 17 18 17 19 23 30 32 31 29 27 30 33 32 32 33 36 39 42 45 47 51 51 52 54 58 62 62 56 53 50
16 15 16 16 18 20 21 24 27 28 30 31 32 37 36 35 36 38 41 44 48 50 53 53 57 58 61 60 63 64 53 42
15 18 21 22 22 22 24 27 29 31 34 36 39 41 39 38 39 41 44 48 51 53 55 58 58 61 61 73 64 60 47 44
21 22 24 28 29 28 28 29 29 30 38 41 42 45 45 46 45 44 50 51 53 58 59 56 57 61 67 65 62 47 44 41
28 28 28 29 30 32 33 32 36 34 37 43 48 52 52 51 51 51 49 51 57 62 59 61 60 69 66 71 50 45 45 42
29 29 29 29 29 28 32 33 35 38 42 46 55 57 57 55 53 58 64 68 69 68 63 67 70 68 69 56 54 48 42 42

GFSFLT2_prec_cthk_231.txt.gz
RH
17 16 16 17 19 21 23 25 26 28 27 27 27 27 27 27 26 25 24 23 24 23 24 24 22 22 22 22 26 29 29 30
18 18 18 17 18 20 22 25 27 30 30 29 29 29 29 29 28 27 26 25 24 24 24 24 23 22 21 22 22 23 26 28
20 20 20 19 18 19 21 24 27 30 31 31 31 31 32 32 31 30 29 28 27 26 24 25 25 24 23 22 22 22 22 23
20 20 21 20 19 19 20 23 25 29 31 31 31 32 34 34 35 34 34 33 31 29 28 26 25 26 26 26 26 25 25 25
21 21 21 20 20 19 19 21 23 26 29 31 32 32 34 36 37 37 37 37 36 34 33 31 30 29 28 28 29 29 30 30
22 23 21 21 20 18 19 20 22 24 27 29 31 31 33 35 38 40 40 41 41 40 38 37 36 35 35 36 36 37 37 38
23 22 22 22 21 20 20 20 21 22 24 27 29 30 31 34 37 39 41 43 44 44 43 43 43 43 43 45 47 51 54 58
24 23 22 22 21 20 21 21 22 22 23 25 27 29 30 32 34 37 40 42 45 47 47 46 46 49 53 58 62 64 65 66
25 25 23 21 21 22 21 21 22 23 23 24 26 28 30 31 33 35 37 40 43 46 48 50 50 53 57 60 61 60 61 61
28 26 24 23 23 24 22 23 22 24 24 24 25 27 29 30 31 33 36 38 42 45 47 50 51 53 57 56 55 54 53 53
33 28 25 24 23 24 24 24 25 25 25 25 25 26 28 29 29 32 35 37 40 43 46 47 49 49 49 49 49 48 50 54
34 32 30 26 25 25 26 25 26 26 26 26 25 26 27 28 29 31 33 36 38 40 42 45 47 48 48 49 51 53 53 57
24 29 28 30 28 27 26 24 24 25 27 29 28 26 27 28 29 30 32 35 37 40 43 45 47 50 51 50 51 52 53 54
19 19 22 25 27 27 28 26 26 26 32 32 30 28 28 29 30 31 32 35 38 41 45 48 51 51 51 53 53 52 54 56
20 20 20 21 23 25 26 28 28 26 31 34 31 31 30 31 32 33 34 36 38 43 46 50 50 53 53 55 55 55 55 55
20 20 20 21 20 20 22 21 21 21 28 35 37 36 35 35 36 36 36 37 40 44 49 51 53 53 55 58 61 61 61 59
22 21 20 19 19 21 20 22 21 25 27 36 40 41 40 42 42 42 40 41 43 46 50 53 55 57 58 61 63 63 66 60
19 20 20 20 18 18 19 21 25 27 29 35 39 40 46 45 45 48 48 49 50 49 52 55 56 60 64 64 62 65 62 59
18 17 16 16 20 24 24 27 30 30 32 35 37 43 48 50 51 53 53 55 57 60 64 65 65 69 73 68 70 63 68 52
22 21 20 20 21 24 26 32 34 36 38 36 37 41 49 55 58 58 61 65 67 69 74 80 86 81 75 67 66 67 54 51

GFSFLT2_prec_cthk_234.txt.gz
RH
17 16 17 18 19 19 20 22 22 24 25 25 25 25 25 25 25 24 23 22 23 24 24 23 23 23 23 25 27 28 34 36
19 18 18 19 20 21 21 22 23 25 26 26 26 27 27 27 26 26 25 24 23 23 23 25 23 22 22 21 22 25 30 34
19 20 21 21 21 22 23 24 25 26 27 27 28 28 29 29 29 28 28 27 26 25 24 24 24 25 23 22 22 25 25 27
19 20 22 23 25 22 23 24 26 27 28 29 29 30 30 31 31 31 31 30 30 29 28 27 26 27 25 25 26 27 26 28
21 21 21 23 27 24 24 24 26 26 28 29 30 30 31 33 34 34 34 34 33 33 32 31 31 33 33 32 31 29 31 31
24 22 22 24 26 24 26 26 27 27 27 28 30 30 30 32 37 37 37 37 39 37 38 39 35 34 35 36 36 37 38 39
25 23 22 24 23 26 27 27 28 28 28 27 29 30 30 31 36 39 40 42 41 41 44 41 41 41 41 41 42 45 50 55
27 23 23 24 22 23 23 26 28 28 29 28 28 30 30 30 33 36 40 42 44 45 47 47 47 47 46 46 51 58 63 64
26 24 23 24 21 22 22 25 26 28 29 26 26 28 30 31 33 34 36 39 41 43 46 47 52 52 51 53 57 61 64 61
31 25 25 24 25 23 25 27 24 28 29 27 26 27 29 30 33 34 35 37 38 42 44 48 52 54 54 55 58 60 59 55
33 29 26 26 26 25 25 25 26 29 30 27 25 26 28 30 34 35 32 34 37 41 43 47 54 55 55 56 58 54 53 50
37 34 32 28 26 25 26 26 27 28 29 27 27 26 27 28 33 36 32 35 38 40 43 45 49 54 57 53 53 53 52 55
41 42 37 34 30 28 27 26 28 29 29 29 30 29 27 28 31 34 33 35 37 40 42 44 45 47 53 54 55 52 49 51
37 39 38 35 36 35 35 35 34 31 29 28 32 34 31 29 30 35 34 37 38 38 41 42 43 46 50 53 55 54 50 49
22 22 27 29 27 32 34 36 36 35 31 30 30 34 37 33 32 35 36 36 39 40 41 42 44 47 51 52 54 57 55 53
20 21 21 22 22 26 26 26 30 27 29 32 31 33 38 40 36 34 34 36 39 41 42 44 48 48 51 52 54 54 59 60
19 19 20 20 21 21 24 24 25 27 27 29 30 32 37 43 44 38 39 41 40 42 43 44 46 50 54 57 59 58 63 68
16 17 19 20 20 22 22 22 23 27 28 27 30 32 33 39 44 43 41 43 45 47 48 48 52 53 57 60 61 63 68 75
14 16 17 18 18 19 23 22 23 26 29 30 34 34 32 40 44 47 49 51 52 52 54 57 60 61 63 68 72 77 79 77
15 14 15 22 22 21 25 28 29 28 32 33 35 37 34 38 42 49 54 57 61 62 62 65 67 69 76 82 80 76 75 72

GFSFLT2_prec_cthk_237.txt.gz
RH
15 16 16 15 16 16 17 17 18 20 22 23 24 24 24 24 24 23 22 21 22 23 22 22 24 24 25 26 27 27 37 42
16 16 17 17 18 18 19 20 20 20 21 23 24 25 25 25 25 24 24 23 23 22 22 24 23 22 23 23 24 27 31 42
18 18 18 19 20 20 21 22 22 22 22 23 24 25 26 26 26 26 26 26 25 24 24 23 24 24 24 24 23 24 31 32
20 20 20 21 25 23 22 23 23 23 24 24 25 27 27 27 28 28 28 28 27 27 26 26 25 25 25 24 24 30 28 30
26 22 22 23 26 26 25 24 24 24 25 26 26 31 30 31 32 30 30 30 30 30 29 29 29 34 34 30 30 30 32 34
27 27 26 23 28 28 27 27 27 27 28 28 30 32 32 33 35 33 32 33 33 33 34 33 36 36 38 37 35 35 38 40
28 28 29 25 27 29 26 29 29 29 30 30 32 33 33 33 35 36 37 38 39 40 40 40 41 41 40 41 41 42 45 48
28 29 30 29 29 29 26 28 32 31 34 30 30 33 34 33 33 36 40 42 41 42 43 44 45 45 45 45 46 46 50 55
30 32 32 30 28 30 27 28 30 31 32 31 30 32 33 33 34 35 40 41 42 42 45 45 49 51 52 52 50 50 56 60
32 33 33 31 29 29 29 28 29 33 33 34 31 31 32 32 34 37 40 41 41 43 44 46 47 49 55 55 54 54 57 64
36 34 33 31 31 31 31 30 30 30 32 32 30 30 30 32 33 36 37 39 39 41 42 43 44 47 51 56 60 62 59 60
39 34 37 34 32 31 32 30 30 31 32 32 32 30 30 31 33 34 35 36 38 39 40 42 44 49 52 57 58 59 56 58
45 37 37 36 32 30 29 29 31 31 31 33 33 33 32 33 34 33 34 35 36 37 39 42 44 47 49 51 54 57 55 57
51 44 38 37 38 34 32 32 32 32 32 31 31 31 33 35 35 36 34 36 37 37 37 40 42 46 48 51 52 54 55 52
59 53 48 45 43 42 42 42 41 39 33 33 33 33 33 35 39 41 39 38 39 38 39 40 39 42 46 47 50 48 55 51
42 50 52 50 48 46 43 41 41 39 37 37 37 34 34 36 39 41 45 41 40 39 39 40 41 41 43 45 46 47 52 53
36 37 35 37 39 38 35 32 30 31 34 38 37 36 33 35 37 41 43 45 42 43 42 42 42 46 42 47 47 50 52 57
25 27 31 30 28 26 24 23 23 26 30 34 34 35 34 32 33 38 42 45 47 46 46 43 44 48 51 52 54 57 61 68
15 22 24 24 22 21 22 21 25 27 28 31 32 32 31 28 31 35 40 48 52 52 51 48 48 51 58 63 65 66 68 75
16 16 17 19 22 23 22 24 25 26 27 29 33 30 27 29 33 38 42 50 52 52 51 52 60 63 63 67 72 71 74 74

GFSFLT2_prec_cthk_240.txt.gz
RH
14 13 13 13 12 13 13 14 15 16 18 20 22 23 23 22 22 21 20 20 21 21 21 22 23 24 25 25 27 37 38 43
15 14 14 13 13 14 14 14 15 16 17 19 21 23 24 24 23 23 22 22 21 21 21 22 22 21 22 24 25 32 37 38
16 15 15 15 15 15 15 16 16 16 17 18 20 22 23 24 25 24 24 24 23 23 22 21 22 22 22 22 22 24 26 33
18 17 17 18 18 18 18 17 17 17 18 19 20 21 23 24 25 25 26 26 25 25 25 24 23 23 23 23 23 25 27 29
20 19 19 19 19 19 20 20 19 19 19 20 21 22 23 24 26 26 27 27 27 27 27 27 27 27 29 28 27 28 29 32
22 21 21 21 24 21 21 21 21 20 21 21 21 23 25 25 25 27 28 29 29 29 29 29 30 32 36 38 34 36 36 38
26 24 23 22 27 23 22 20 21 21 21 22 23 24 27 27 28 29 27 28 29 30 32 33 33 34 35 37 38 38 40 45
29 27 25 23 27 26 24 22 22 22 22 22 23 24 28 29 29 29 29 29 31 31 34 35 37 39 39 39 40 43 43 45
32 31 29 25 27 28 28 24 23 24 24 24 23 24 28 29 29 30 30 31 31 33 35 38 38 40 41 43 45 46 47 52
36 32 31 28 27 30 28 28 25 25 26 25 25 26 27 29 30 30 32 35 36 35 35 36 38 41 43 46 50 52 53 55
40 34 32 30 28 29 31 28 28 28 27 27 26 26 26 29 29 30 32 34 35 35 34 36 37 40 44 47 49 51 52 55
42 41 35 36 32 31 32 31 29 28 29 28 29 27 28 27 29 30 31 33 33 34 36 36 38 40 44 44 46 48 50 52
46 41 40 38 37 30 32 30 30 29 29 31 31 30 31 31 31 32 31 30 32 33 36 38 39 41 43 46 45 46 47 49
51 41 43 38 39 34 32 35 33 31 30 29 30 30 31 32 33 34 35 35 34 34 34 36 38 39 40 42 46 47 46 46
55 48 40 42 39 41 39 40 39 36 31 30 31 32 32 32 32 34 38 40 39 38 36 36 37 39 40 43 47 44 46 47
50 54 48 45 47 43 42 42 39 36 34 34 35 35 34 34 35 35 37 40 41 42 44 40 41 39 41 41 45 45 47 46
44 65 57 60 53 56 46 45 46 46 46 45 44 43 43 41 38 39 38 40 39 41 44 44 41 42 41 42 45 46 48 52
24 33 57 64 60 70 58 50 53 55 52 48 44 38 34 35 35 37 39 41 39 37 41 47 45 44 45 43 43 48 53 57
29 26 30 30 34 40 43 47 47 44 44 43 41 36 33 28 29 31 32 35 40 41 44 47 51 48 49 46 51 56 59 63
22 26 26 28 32 33 33 36 38 37 35 33 30 34 31 30 29 30 32 35 37 40 44 47 53 53 54 57 60 61 62 67